EW2964 Selden NY US current weather conditions

sailwx.info

Wind from 103 at 3 knots gusting 11

Air temperature 26.7° C
Dewpoint 22.3° C

Last reported at 2020-Jul-06 19:59 UTC.
Time now 2020-Jul-06 20:42 UTC

Location: N 40°51' W 073°02'.
View on Google Maps.

See reports from other nearby stations

  
Tides and Currents Weather Stations Pressure Air Temp Water Temp Dewpoint Dewpoint Depression Visibility Wind Speed Wind Dir Waves Ship Positions
date/time (UTC)wind fromknots sea level pressurealtimeterstation pressurevisibilityair tempwater tempwave heightnotes
2020-Jul-06 19:59 103 3 gusting 11 26.7
2020-Jul-06 19:44 097 5 gusting 16 26.7
2020-Jul-06 19:29 119 2 gusting 10 27.8
2020-Jul-06 19:13 130 3 gusting 12 28.3
2020-Jul-06 18:58 104 0 gusting 10 29.4
2020-Jul-06 18:43 123 2 gusting 11 30.6
2020-Jul-06 18:28 129 3 gusting 9 31.1
2020-Jul-06 18:12 223 1 gusting 11 32.8
2020-Jul-06 17:57 090 0 gusting 6 33.3
2020-Jul-06 17:42 161 0 gusting 5 32.8
2020-Jul-06 17:27 085 32.8
2020-Jul-06 17:12 117 0 gusting 6 32.2
2020-Jul-06 16:56 057 0 gusting 5 31.7
2020-Jul-06 16:41 026 0 gusting 6 31.7
2020-Jul-06 16:26 101 0 gusting 6 31.7
2020-Jul-06 16:11 019 0 gusting 4 31.7
2020-Jul-06 15:56 005 0 gusting 5 31.7
2020-Jul-06 15:41 355 31.7
2020-Jul-06 15:26 005 0 gusting 4 31.1
2020-Jul-06 15:11 018 30.6
2020-Jul-06 14:56 015 30.6
2020-Jul-06 14:40 011 30.0
2020-Jul-06 14:25 011 0 gusting 4 29.4
2020-Jul-06 14:10 012 30.0
2020-Jul-06 13:55 012 29.4
2020-Jul-06 13:40 005 28.9
2020-Jul-06 13:25 022 0 gusting 4 28.3
2020-Jul-06 13:10 012 27.8
2020-Jul-06 12:54 013 0 gusting 4 27.2
2020-Jul-06 12:39 013 0 gusting 5 26.7
2020-Jul-06 12:24 042 26.1
2020-Jul-06 12:09 042 0 gusting 4 25.0
2020-Jul-06 11:54 069 24.4
2020-Jul-06 11:39 117 23.9
2020-Jul-06 11:24 117 23.3
2020-Jul-06 11:09 198 22.8
2020-Jul-06 10:53 198 22.2
2020-Jul-06 10:38 198 21.7
2020-Jul-06 10:23 198 21.1
2020-Jul-06 10:08 198 21.1
2020-Jul-06 09:53 194 21.1
2020-Jul-06 09:38 194 21.1
2020-Jul-06 09:23 194 21.1
2020-Jul-06 09:08 194 21.7
2020-Jul-06 08:53 194 21.7
2020-Jul-06 08:38 194 21.7
2020-Jul-06 08:23 194 21.7
2020-Jul-06 08:08 194 21.7
2020-Jul-06 07:53 194 22.2
2020-Jul-06 07:38 194 22.2
2020-Jul-06 07:23 194 22.2
2020-Jul-06 07:08 194 22.8
2020-Jul-06 06:52 194 22.8
2020-Jul-06 06:37 194 22.8
2020-Jul-06 06:22 194 22.8
2020-Jul-06 06:06 194 23.3
2020-Jul-06 05:51 194 23.3
2020-Jul-06 05:36 194 23.3
2020-Jul-06 05:21 194 23.3
2020-Jul-06 05:06 191 23.9
2020-Jul-06 04:50 292 23.9
2020-Jul-06 04:35 204 23.9
2020-Jul-06 04:20 177 23.9
2020-Jul-06 03:50 206 23.9
2020-Jul-06 03:34 207 23.9
2020-Jul-06 03:19 203 23.9
2020-Jul-06 03:04 190 23.9
2020-Jul-06 02:49 190 24.4
2020-Jul-06 02:34 216 24.4
2020-Jul-06 02:19 155 24.4
2020-Jul-06 02:03 182 24.4
2020-Jul-06 01:48 181 25.0
2020-Jul-06 01:33 155 25.0
2020-Jul-06 01:17 229 25.6
2020-Jul-06 01:02 225 25.6
2020-Jul-06 00:47 172 25.6
2020-Jul-06 00:32 159 26.1
2020-Jul-06 00:17 159 26.7
2020-Jul-06 00:01 159 26.7
2020-Jul-05 23:46 159 27.2
2020-Jul-05 23:31 261 27.2
2020-Jul-05 23:16 215 27.2
2020-Jul-05 23:01 178 27.8
2020-Jul-05 22:46 186 28.3
2020-Jul-05 22:30 231 28.9
2020-Jul-05 22:15 277 0 gusting 6 28.9
2020-Jul-05 22:00 278 0 gusting 6 29.4
2020-Jul-05 21:45 195 0 gusting 6 30.0
2020-Jul-05 21:30 157 0 gusting 5 30.0
2020-Jul-05 21:15 230 30.6
2020-Jul-05 20:59 165 30.6
2020-Jul-05 20:44 217 0 gusting 6 30.6
2020-Jul-05 20:29 228 0 gusting 6 30.6
2020-Jul-05 20:14 207 0 gusting 6 30.0
2020-Jul-05 19:59 184 0 gusting 6 30.6
2020-Jul-05 19:44 172 30.6
2020-Jul-05 19:28 136 0 gusting 4 30.6
2020-Jul-05 19:13 159 0 gusting 6 31.7
2020-Jul-05 18:58 231 1 gusting 6 31.1
2020-Jul-05 18:43 343 32.2
2020-Jul-05 18:28 286 0 gusting 4 31.7
2020-Jul-05 18:13 272 31.7
2020-Jul-05 17:57 009 30.6
2020-Jul-05 17:42 236 30.0
2020-Jul-05 17:27 250 0 gusting 4 30.0
2020-Jul-05 17:12 306 30.0
2020-Jul-05 16:57 327 29.4
2020-Jul-05 16:42 355 28.9
2020-Jul-05 16:27 302 0 gusting 6 28.3
2020-Jul-05 16:12 355 28.3
2020-Jul-05 15:57 240 27.8
2020-Jul-05 15:41 246 27.8
2020-Jul-05 15:26 250 27.2
2020-Jul-05 15:11 250 26.7
2020-Jul-05 14:56 269 0 gusting 7 26.7
2020-Jul-05 14:41 239 0 gusting 7 25.6
2020-Jul-05 14:26 242 0 gusting 6 25.6
2020-Jul-05 14:10 255 0 gusting 7 25.6
2020-Jul-05 13:55 255 0 gusting 6 25.6
2020-Jul-05 13:40 279 0 gusting 8 25.0
2020-Jul-05 13:24 278 1 gusting 8 25.0
2020-Jul-05 13:09 245 25.0
2020-Jul-05 12:54 242 25.0
2020-Jul-05 12:39 277 0 gusting 8 24.4
2020-Jul-05 12:24 269 0 gusting 6 24.4
2020-Jul-05 12:09 234 1 gusting 8 23.9
2020-Jul-05 11:54 227 1 gusting 7 23.3
2020-Jul-05 11:39 199 0 gusting 5 22.8
2020-Jul-05 11:24 170 22.2
2020-Jul-05 11:09 263 21.7
2020-Jul-05 10:53 261 0 gusting 5 21.1
2020-Jul-05 10:38 304 20.6
2020-Jul-05 10:23 304 20.6
2020-Jul-05 10:08 212 20.0
2020-Jul-05 09:52 212 20.0
2020-Jul-05 09:37 212 20.0
2020-Jul-05 09:22 212 20.0
2020-Jul-05 09:07 212 20.0
2020-Jul-05 08:52 212 20.0
2020-Jul-05 08:37 212 20.0
2020-Jul-05 08:22 212 20.6
2020-Jul-05 08:07 212 20.6
2020-Jul-05 07:52 212 20.6
2020-Jul-05 07:36 212 20.6
2020-Jul-05 07:21 212 20.6
2020-Jul-05 07:06 212 20.6
2020-Jul-05 06:51 212 20.6
2020-Jul-05 06:36 212 20.6
2020-Jul-05 06:21 212 20.6
2020-Jul-05 06:06 212 20.0
2020-Jul-05 05:51 212 20.0
2020-Jul-05 05:36 212 20.0
2020-Jul-05 05:21 212 20.0
2020-Jul-05 05:06 212 20.0
2020-Jul-05 04:50 212 20.0
2020-Jul-05 04:35 212 20.0
2020-Jul-05 04:20 212 20.0
2020-Jul-05 04:05 212 19.4
2020-Jul-05 03:50 212 19.4
2020-Jul-05 03:35 212 20.0
2020-Jul-05 03:20 212 20.0
2020-Jul-05 03:05 212 20.0
2020-Jul-05 02:50 212 20.0
2020-Jul-05 02:35 212 20.0
2020-Jul-05 02:20 212 20.6
2020-Jul-05 02:05 212 20.6
2020-Jul-05 01:49 212 20.6
2020-Jul-05 01:34 211 21.1
2020-Jul-05 01:19 221 21.1
2020-Jul-05 01:04 221 21.1
2020-Jul-05 00:49 138 21.7
2020-Jul-05 00:34 138 21.7
2020-Jul-05 00:19 138 22.2
2020-Jul-05 00:04 136 22.8
2020-Jul-04 23:49 207 23.3
2020-Jul-04 23:34 198 23.3
2020-Jul-04 23:18 284 23.3
2020-Jul-04 23:03 248 23.9
2020-Jul-04 22:48 153 23.9
2020-Jul-04 22:33 173 24.4
2020-Jul-04 22:18 292 24.4
2020-Jul-04 22:03 229 25.6
2020-Jul-04 21:48 190 25.6
2020-Jul-04 21:33 229 26.7
2020-Jul-04 21:18 088 0 gusting 5 26.7
2020-Jul-04 21:03 240 27.2
2020-Jul-04 20:48 266 0 gusting 6 27.2
2020-Jul-04 20:33 175 0 gusting 6 27.8
2020-Jul-04 20:17 266 0 gusting 5 27.8
2020-Jul-04 20:02 115 28.9